QPF
0.00 0.00 0.00 0.00 0.00 0.00 0.00 0.00 0.00 0.00 0.00 0.00 0.00 0.00 0.00 0.00 0.00 0.00 0.00 0.00 0.00 0.00 0.00 0.01 0.01 0.01 0.02 0.03 0.03 0.04 0.06 0.09 0.13 0.16 0.17 0.15 0.14 0.13
0.00 0.00 0.00 0.00 0.00 0.00 0.00 0.00 0.00 0.00 0.00 0.00 0.00 0.00 0.00 0.00 0.00 0.00 0.00 0.00 0.00 0.00 0.00 0.00 0.00 0.00 0.00 0.01 0.02 0.03 0.03 0.05 0.07 0.09 0.10 0.12 0.12 0.13
0.00 0.00 0.00 0.00 0.00 0.00 0.00 0.00 0.00 0.00 0.00 0.00 0.00 0.00 0.00 0.00 0.00 0.00 0.00 0.00 0.00 0.00 0.00 0.00 0.00 0.00 0.00 0.00 0.01 0.01 0.02 0.03 0.05 0.06 0.07 0.08 0.08 0.08
0.00 0.00 0.00 0.00 0.00 0.00 0.00 0.00 0.00 0.00 0.00 0.00 0.00 0.00 0.00 0.00 0.00 0.00 0.00 0.00 0.00 0.00 0.00 0.00 0.00 0.00 0.00 0.01 0.01 0.01 0.01 0.01 0.02 0.03 0.04 0.07 0.08 0.08
0.00 0.00 0.00 0.00 0.00 0.00 0.00 0.00 0.00 0.00 0.00 0.00 0.00 0.00 0.00 0.00 0.00 0.00 0.00 0.00 0.00 0.00 0.00 0.00 0.00 0.00 0.00 0.00 0.01 0.01 0.01 0.01 0.01 0.01 0.02 0.03 0.04 0.06
0.00 0.00 0.00 0.00 0.00 0.00 0.00 0.00 0.00 0.00 0.00 0.00 0.00 0.00 0.00 0.00 0.00 0.00 0.00 0.00 0.00 0.00 0.00 0.00 0.00 0.00 0.00 0.00 0.00 0.01 0.01 0.01 0.01 0.01 0.01 0.01 0.02 0.03
0.00 0.00 0.00 0.00 0.00 0.00 0.00 0.00 0.00 0.00 0.00 0.00 0.00 0.00 0.00 0.00 0.00 0.00 0.00 0.00 0.00 0.00 0.00 0.00 0.00 0.00 0.00 0.00 0.00 0.00 0.00 0.01 0.01 0.01 0.01 0.01 0.01 0.01
0.00 0.00 0.00 0.00 0.00 0.00 0.00 0.00 0.00 0.00 0.00 0.00 0.00 0.00 0.00 0.00 0.00 0.00 0.00 0.00 0.00 0.00 0.00 0.00 0.00 0.00 0.00 0.00 0.00 0.00 0.00 0.00 0.01 0.01 0.01 0.00 0.00 0.00
0.00 0.00 0.00 0.00 0.00 0.00 0.00 0.00 0.00 0.00 0.00 0.00 0.00 0.00 0.00 0.00 0.00 0.00 0.00 0.00 0.00 0.00 0.00 0.00 0.00 0.00 0.00 0.00 0.00 0.00 0.00 0.00 0.00 0.00 0.00 0.00 0.00 0.00
0.00 0.00 0.00 0.00 0.00 0.00 0.00 0.00 0.00 0.00 0.00 0.00 0.00 0.00 0.00 0.00 0.00 0.00 0.00 0.00 0.00 0.00 0.00 0.00 0.00 0.00 0.00 0.00 0.00 0.00 0.00 0.00 0.00 0.00 0.00 0.00 0.00 0.00
0.00 0.00 0.00 0.00 0.00 0.00 0.00 0.00 0.00 0.00 0.00 0.00 0.00 0.00 0.00 0.00 0.00 0.00 0.00 0.00 0.00 0.00 0.00 0.00 0.00 0.00 0.00 0.00 0.00 0.00 0.00 0.00 0.00 0.00 0.00 0.00 0.00 0.00
0.00 0.00 0.00 0.00 0.00 0.00 0.00 0.00 0.00 0.00 0.00 0.00 0.00 0.00 0.00 0.00 0.00 0.00 0.00 0.01 0.00 0.00 0.00 0.00 0.00 0.00 0.00 0.00 0.00 0.00 0.00 0.00 0.00 0.00 0.00 0.00 0.00 0.00
0.00 0.00 0.00 0.00 0.00 0.00 0.00 0.00 0.00 0.00 0.00 0.00 0.00 0.00 0.00 0.00 0.00 0.00 0.00 0.01 0.01 0.00 0.00 0.00 0.00 0.00 0.00 0.00 0.00 0.00 0.00 0.00 0.00 0.00 0.00 0.00 0.00 0.00
0.00 0.00 0.00 0.00 0.00 0.00 0.00 0.00 0.00 0.00 0.00 0.00 0.00 0.00 0.00 0.00 0.00 0.00 0.00 0.01 0.01 0.00 0.00 0.01 0.01 0.01 0.01 0.01 0.00 0.00 0.00 0.00 0.00 0.00 0.00 0.01 0.01 0.01
0.01 0.01 0.00 0.00 0.00 0.00 0.00 0.00 0.00 0.00 0.00 0.00 0.00 0.00 0.00 0.00 0.00 0.00 0.01 0.01 0.01 0.01 0.01 0.01 0.02 0.02 0.02 0.01 0.00 0.00 0.00 0.00 0.00 0.00 0.01 0.01 0.01 0.01
0.01 0.01 0.01 0.00 0.00 0.00 0.00 0.00 0.00 0.00 0.00 0.00 0.00 0.00 0.00 0.01 0.01 0.01 0.02 0.02 0.02 0.01 0.01 0.01 0.02 0.02 0.01 0.01 0.01 0.00 0.00 0.00 0.00 0.00 0.01 0.01 0.02 0.02
0.00 0.00 0.00 0.00 0.00 0.00 0.00 0.00 0.01 0.01 0.01 0.01 0.01 0.01 0.01 0.02 0.02 0.02 0.03 0.03 0.02 0.01 0.01 0.01 0.01 0.02 0.02 0.01 0.01 0.00 0.00 0.00 0.00 0.01 0.01 0.01 0.01 0.02
0.00 0.00 0.00 0.00 0.00 0.00 0.00 0.00 0.01 0.02 0.02 0.02 0.03 0.03 0.03 0.03 0.03 0.03 0.04 0.04 0.03 0.02 0.02 0.02 0.02 0.03 0.02 0.01 0.01 0.01 0.00 0.00 0.01 0.01 0.02 0.02 0.01 0.01
0.00 0.00 0.00 0.00 0.00 0.01 0.01 0.01 0.01 0.01 0.02 0.03 0.04 0.04 0.04 0.04 0.04 0.04 0.04 0.04 0.03 0.03 0.03 0.03 0.04 0.05 0.04 0.02 0.01 0.02 0.02 0.01 0.01 0.01 0.02 0.02 0.02 0.01
0.00 0.00 0.00 0.00 0.01 0.01 0.01 0.01 0.01 0.01 0.02 0.02 0.02 0.03 0.03 0.04 0.04 0.04 0.05 0.05 0.05 0.05 0.05 0.05 0.06 0.06 0.06 0.04 0.02 0.02 0.02 0.02 0.02 0.02 0.02 0.03 0.04 0.04
0.00 0.00 0.00 0.00 0.01 0.01 0.01 0.02 0.02 0.02 0.03 0.03 0.03 0.03 0.03 0.03 0.03 0.03 0.04 0.05 0.05 0.05 0.05 0.04 0.04 0.06 0.06 0.05 0.03 0.02 0.02 0.02 0.02 0.03 0.04 0.04 0.04 0.05
0.01 0.01 0.01 0.01 0.01 0.02 0.02 0.02 0.02 0.02 0.03 0.03 0.02 0.03 0.03 0.04 0.03 0.03 0.03 0.04 0.04 0.04 0.03 0.02 0.02 0.04 0.04 0.04 0.03 0.02 0.02 0.02 0.03 0.04 0.04 0.05 0.06 0.07
0.02 0.03 0.03 0.03 0.02 0.02 0.02 0.02 0.02 0.03 0.04 0.04 0.05 0.04 0.04 0.04 0.04 0.03 0.03 0.04 0.05 0.05 0.04 0.03 0.03 0.04 0.04 0.04 0.03 0.03 0.03 0.03 0.03 0.03 0.02 0.03 0.04 0.05
MSLP
1018.09 1018.36 1018.62 1018.84 1019.00 1019.08 1019.09 1019.02 1018.88 1018.69 1018.45 1018.18 1017.87 1017.55 1017.21 1016.87 1016.54 1016.26 1016.04 1015.88 1015.80 1015.78 1015.80 1015.84 1015.85 1015.83 1015.75 1015.62 1015.47 1015.33 1015.23 1015.22 1015.32 1015.53 1015.84 1016.23 1016.65 1017.06
1018.02 1018.26 1018.50 1018.70 1018.86 1018.95 1018.99 1018.97 1018.89 1018.76 1018.58 1018.36 1018.08 1017.75 1017.38 1016.98 1016.59 1016.21 1015.89 1015.64 1015.47 1015.37 1015.33 1015.33 1015.32 1015.29 1015.22 1015.11 1014.97 1014.84 1014.76 1014.74 1014.82 1015.00 1015.27 1015.60 1015.96 1016.32
1017.93 1018.12 1018.31 1018.47 1018.60 1018.69 1018.75 1018.76 1018.74 1018.68 1018.58 1018.41 1018.19 1017.89 1017.53 1017.11 1016.68 1016.25 1015.85 1015.52 1015.27 1015.09 1014.99 1014.93 1014.89 1014.84 1014.76 1014.66 1014.54 1014.43 1014.36 1014.35 1014.41 1014.57 1014.80 1015.08 1015.38 1015.67
1017.82 1017.96 1018.08 1018.19 1018.28 1018.36 1018.42 1018.46 1018.49 1018.50 1018.47 1018.38 1018.21 1017.97 1017.65 1017.26 1016.82 1016.37 1015.94 1015.55 1015.24 1015.00 1014.83 1014.71 1014.62 1014.53 1014.43 1014.31 1014.19 1014.09 1014.01 1014.00 1014.06 1014.19 1014.39 1014.63 1014.88 1015.11
1017.70 1017.77 1017.84 1017.90 1017.95 1018.00 1018.06 1018.13 1018.19 1018.25 1018.28 1018.26 1018.17 1018.00 1017.74 1017.39 1016.99 1016.56 1016.13 1015.72 1015.37 1015.08 1014.85 1014.66 1014.51 1014.36 1014.22 1014.06 1013.92 1013.79 1013.70 1013.68 1013.72 1013.83 1014.00 1014.21 1014.42 1014.62
1017.54 1017.57 1017.59 1017.61 1017.63 1017.66 1017.71 1017.78 1017.87 1017.96 1018.04 1018.07 1018.05 1017.95 1017.76 1017.49 1017.15 1016.77 1016.37 1015.97 1015.61 1015.29 1015.01 1014.76 1014.53 1014.31 1014.09 1013.88 1013.68 1013.51 1013.39 1013.33 1013.35 1013.44 1013.58 1013.77 1013.97 1014.15
1017.32 1017.32 1017.32 1017.32 1017.32 1017.34 1017.38 1017.45 1017.54 1017.64 1017.74 1017.81 1017.84 1017.79 1017.68 1017.48 1017.22 1016.91 1016.57 1016.21 1015.86 1015.53 1015.21 1014.91 1014.61 1014.31 1014.01 1013.72 1013.45 1013.21 1013.04 1012.94 1012.92 1012.98 1013.11 1013.28 1013.48 1013.66
1017.00 1017.00 1016.99 1016.98 1016.98 1016.99 1017.02 1017.08 1017.16 1017.25 1017.35 1017.44 1017.49 1017.49 1017.43 1017.31 1017.13 1016.89 1016.62 1016.32 1016.01 1015.69 1015.36 1015.01 1014.66 1014.29 1013.91 1013.53 1013.18 1012.88 1012.64 1012.49 1012.43 1012.46 1012.57 1012.73 1012.92 1013.12
1016.54 1016.55 1016.56 1016.56 1016.57 1016.57 1016.60 1016.63 1016.69 1016.76 1016.84 1016.91 1016.97 1016.99 1016.97 1016.91 1016.80 1016.65 1016.45 1016.23 1015.96 1015.67 1015.35 1014.99 1014.59 1014.17 1013.73 1013.29 1012.87 1012.50 1012.21 1012.00 1011.90 1011.90 1011.98 1012.13 1012.32 1012.52
1015.93 1015.96 1015.98 1016.00 1016.02 1016.03 1016.04 1016.05 1016.08 1016.11 1016.16 1016.20 1016.24 1016.27 1016.28 1016.26 1016.21 1016.13 1016.01 1015.85 1015.65 1015.40 1015.11 1014.76 1014.36 1013.92 1013.45 1012.98 1012.52 1012.11 1011.77 1011.53 1011.39 1011.35 1011.40 1011.53 1011.70 1011.90
1015.16 1015.20 1015.25 1015.28 1015.30 1015.31 1015.31 1015.31 1015.30 1015.30 1015.30 1015.31 1015.33 1015.35 1015.37 1015.38 1015.37 1015.34 1015.29 1015.20 1015.06 1014.87 1014.63 1014.32 1013.95 1013.53 1013.07 1012.60 1012.14 1011.72 1011.36 1011.09 1010.92 1010.85 1010.87 1010.96 1011.11 1011.27
1014.28 1014.33 1014.38 1014.42 1014.44 1014.45 1014.43 1014.41 1014.37 1014.34 1014.31 1014.29 1014.29 1014.29 1014.31 1014.33 1014.35 1014.36 1014.35 1014.31 1014.23 1014.11 1013.92 1013.68 1013.37 1013.01 1012.60 1012.17 1011.74 1011.34 1011.00 1010.72 1010.53 1010.43 1010.41 1010.46 1010.55 1010.67
1013.34 1013.38 1013.43 1013.46 1013.48 1013.47 1013.45 1013.40 1013.35 1013.29 1013.24 1013.20 1013.18 1013.17 1013.18 1013.20 1013.23 1013.26 1013.27 1013.27 1013.24 1013.17 1013.05 1012.88 1012.65 1012.37 1012.04 1011.69 1011.32 1010.98 1010.66 1010.40 1010.20 1010.07 1010.00 1010.00 1010.03 1010.09
1012.42 1012.44 1012.47 1012.49 1012.49 1012.47 1012.43 1012.37 1012.31 1012.24 1012.18 1012.13 1012.09 1012.07 1012.07 1012.08 1012.10 1012.12 1012.14 1012.16 1012.15 1012.12 1012.06 1011.95 1011.81 1011.62 1011.39 1011.13 1010.85 1010.57 1010.30 1010.06 1009.86 1009.71 1009.60 1009.54 1009.51 1009.50
1011.59 1011.59 1011.60 1011.59 1011.57 1011.53 1011.47 1011.41 1011.33 1011.26 1011.19 1011.14 1011.09 1011.06 1011.04 1011.02 1011.02 1011.02 1011.02 1011.02 1011.02 1011.00 1010.98 1010.93 1010.86 1010.76 1010.62 1010.46 1010.27 1010.06 1009.85 1009.64 1009.45 1009.28 1009.13 1009.01 1008.92 1008.84
1010.91 1010.89 1010.87 1010.83 1010.78 1010.72 1010.64 1010.56 1010.48 1010.40 1010.33 1010.27 1010.21 1010.16 1010.12 1010.07 1010.02 1009.97 1009.93 1009.89 1009.87 1009.85 1009.83 1009.82 1009.80 1009.77 1009.72 1009.64 1009.53 1009.40 1009.24 1009.06 1008.87 1008.69 1008.51 1008.35 1008.21 1008.08
1010.42 1010.38 1010.32 1010.25 1010.17 1010.07 1009.96 1009.86 1009.76 1009.67 1009.59 1009.52 1009.44 1009.37 1009.28 1009.19 1009.08 1008.98 1008.88 1008.78 1008.71 1008.66 1008.64 1008.64 1008.65 1008.67 1008.67 1008.66 1008.62 1008.54 1008.42 1008.27 1008.10 1007.91 1007.72 1007.53 1007.35 1007.19
1010.11 1010.04 1009.95 1009.84 1009.71 1009.57 1009.42 1009.29 1009.16 1009.04 1008.94 1008.84 1008.73 1008.62 1008.49 1008.34 1008.18 1008.00 1007.83 1007.68 1007.55 1007.46 1007.41 1007.40 1007.42 1007.46 1007.50 1007.53 1007.53 1007.50 1007.42 1007.29 1007.13 1006.94 1006.74 1006.54 1006.35 1006.18
1009.96 1009.85 1009.72 1009.55 1009.36 1009.16 1008.97 1008.77 1008.60 1008.44 1008.30 1008.16 1008.02 1007.86 1007.68 1007.48 1007.25 1007.02 1006.78 1006.57 1006.39 1006.25 1006.17 1006.14 1006.16 1006.21 1006.27 1006.32 1006.35 1006.34 1006.29 1006.19 1006.05 1005.87 1005.67 1005.47 1005.28 1005.11
1009.89 1009.74 1009.55 1009.32 1009.06 1008.79 1008.52 1008.27 1008.03 1007.82 1007.62 1007.43 1007.25 1007.04 1006.82 1006.57 1006.30 1006.01 1005.73 1005.47 1005.25 1005.09 1004.98 1004.93 1004.94 1004.99 1005.06 1005.12 1005.17 1005.18 1005.15 1005.07 1004.94 1004.78 1004.60 1004.41 1004.23 1004.06
1009.85 1009.64 1009.38 1009.07 1008.74 1008.39 1008.04 1007.71 1007.41 1007.13 1006.88 1006.64 1006.41 1006.16 1005.90 1005.62 1005.32 1005.01 1004.71 1004.43 1004.19 1004.01 1003.90 1003.84 1003.84 1003.89 1003.96 1004.03 1004.09 1004.11 1004.09 1004.03 1003.92 1003.78 1003.62 1003.45 1003.27 1003.11
1009.79 1009.51 1009.17 1008.78 1008.36 1007.93 1007.51 1007.10 1006.73 1006.39 1006.09 1005.80 1005.53 1005.26 1004.98 1004.68 1004.38 1004.07 1003.77 1003.49 1003.26 1003.09 1002.97 1002.92 1002.93 1002.97 1003.04 1003.12 1003.18 1003.21 1003.20 1003.15 1003.06 1002.94 1002.80 1002.64 1002.47 1002.31
1009.68 1009.31 1008.89 1008.43 1007.93 1007.43 1006.93 1006.47 1006.04 1005.65 1005.30 1004.98 1004.68 1004.40 1004.11 1003.82 1003.53 1003.23 1002.96 1002.71 1002.50 1002.34 1002.25 1002.21 1002.21 1002.26 1002.33 1002.40 1002.46 1002.50 1002.49 1002.45 1002.37 1002.27 1002.14 1001.99 1001.83 1001.67
Thickness
5696 5694 5691 5689 5688 5686 5683 5680 5673 5667 5666 5672 5675 5679 5679 5679 5678 5677 5677 5676 5676 5676 5676 5677 5677 5678 5679 5680 5681 5681 5683 5684 5685 5686 5687 5688 5689 5690
5693 5691 5688 5686 5685 5683 5680 5677 5674 5668 5663 5666 5669 5672 5674 5674 5673 5672 5672 5671 5671 5671 5671 5672 5672 5673 5674 5674 5675 5676 5677 5678 5679 5681 5682 5683 5684 5686
5690 5688 5685 5683 5681 5679 5677 5674 5670 5666 5661 5662 5665 5667 5668 5668 5668 5668 5667 5666 5666 5666 5667 5667 5667 5668 5668 5669 5670 5670 5671 5672 5673 5675 5676 5678 5679 5681
5686 5684 5682 5680 5677 5675 5672 5670 5667 5664 5660 5658 5659 5660 5662 5662 5662 5662 5662 5662 5661 5661 5661 5662 5662 5662 5663 5663 5664 5664 5665 5666 5667 5668 5670 5672 5674 5675
5684 5681 5678 5676 5673 5671 5668 5666 5664 5662 5658 5654 5653 5654 5655 5656 5655 5655 5656 5655 5655 5655 5655 5656 5656 5656 5656 5657 5657 5658 5659 5660 5661 5662 5663 5665 5667 5669
5681 5679 5676 5673 5670 5668 5665 5663 5660 5657 5654 5650 5648 5647 5647 5648 5647 5645 5645 5646 5647 5648 5648 5649 5649 5649 5650 5650 5651 5652 5653 5654 5655 5656 5657 5658 5660 5662
5678 5676 5674 5672 5670 5667 5664 5660 5656 5652 5649 5645 5643 5641 5640 5639 5639 5639 5637 5637 5639 5640 5640 5641 5641 5642 5642 5644 5645 5646 5647 5648 5649 5650 5651 5652 5653 5655
5674 5672 5671 5669 5668 5665 5663 5660 5656 5650 5645 5641 5639 5636 5636 5635 5634 5633 5630 5628 5628 5632 5631 5632 5633 5633 5635 5636 5638 5639 5640 5642 5643 5644 5645 5646 5647 5648
5671 5668 5667 5667 5665 5662 5660 5657 5654 5651 5647 5642 5638 5636 5634 5633 5630 5627 5625 5623 5623 5625 5622 5624 5626 5626 5629 5630 5631 5632 5633 5634 5636 5637 5638 5639 5640 5642
5668 5666 5663 5662 5661 5658 5655 5652 5650 5648 5645 5642 5638 5637 5635 5633 5628 5625 5622 5620 5620 5619 5616 5614 5619 5620 5624 5624 5625 5625 5626 5627 5628 5629 5630 5631 5633 5634
5666 5664 5661 5659 5658 5655 5650 5647 5645 5644 5644 5641 5638 5636 5633 5630 5625 5619 5615 5610 5611 5614 5611 5608 5612 5613 5615 5616 5618 5619 5619 5619 5620 5621 5622 5624 5625 5626
5662 5660 5659 5656 5654 5651 5645 5642 5639 5640 5639 5637 5634 5631 5628 5625 5622 5616 5612 5607 5605 5605 5607 5602 5603 5602 5603 5608 5609 5610 5610 5611 5612 5613 5615 5616 5616 5616
5657 5656 5655 5653 5650 5647 5642 5638 5637 5636 5632 5629 5626 5624 5622 5619 5617 5614 5610 5605 5602 5601 5603 5597 5595 5593 5592 5596 5598 5599 5600 5601 5603 5605 5606 5608 5608 5608
5655 5654 5652 5649 5645 5642 5638 5636 5633 5628 5624 5620 5618 5616 5615 5614 5613 5610 5607 5603 5601 5600 5599 5594 5589 5588 5585 5586 5588 5590 5591 5592 5593 5595 5597 5599 5600 5602
5652 5650 5647 5643 5639 5636 5634 5631 5626 5621 5616 5613 5611 5612 5611 5609 5606 5603 5601 5598 5596 5594 5592 5588 5585 5583 5580 5580 5582 5582 5582 5584 5585 5586 5588 5590 5592 5593
5645 5642 5639 5636 5632 5630 5627 5624 5621 5616 5611 5608 5607 5606 5604 5600 5597 5594 5592 5590 5587 5588 5587 5584 5581 5577 5575 5575 5575 5576 5575 5575 5578 5578 5579 5582 5585 5587
5638 5633 5630 5626 5624 5621 5619 5616 5613 5609 5604 5601 5598 5596 5594 5590 5588 5586 5582 5580 5577 5578 5579 5579 5576 5573 5571 5570 5569 5570 5570 5570 5571 5571 5571 5574 5579 5581
5628 5624 5621 5618 5615 5613 5610 5608 5605 5601 5597 5594 5590 5586 5584 5581 5579 5577 5574 5571 5570 5571 5571 5570 5567 5565 5563 5565 5565 5565 5565 5565 5566 5565 5564 5566 5572 5576
5618 5616 5613 5610 5607 5604 5600 5597 5595 5592 5588 5584 5580 5577 5575 5572 5570 5568 5566 5564 5563 5563 5563 5562 5559 5556 5556 5559 5563 5561 5559 5560 5559 5559 5559 5561 5566 5571
5610 5607 5604 5601 5598 5594 5591 5588 5585 5581 5577 5573 5570 5567 5565 5563 5561 5560 5558 5557 5556 5556 5556 5556 5554 5552 5551 5553 5556 5557 5556 5554 5554 5555 5557 5558 5561 5566
5604 5600 5596 5592 5588 5584 5581 5577 5573 5569 5566 5563 5560 5557 5555 5553 5552 5551 5550 5549 5548 5548 5548 5550 5551 5550 5548 5546 5547 5551 5552 5552 5551 5551 5552 5553 5556 5560
5595 5590 5586 5582 5577 5573 5569 5566 5562 5559 5555 5552 5551 5549 5546 5544 5544 5543 5543 5542 5542 5542 5543 5545 5545 5543 5541 5541 5543 5546 5547 5548 5548 5548 5549 5551 5551 5556
5585 5580 5575 5571 5567 5563 5559 5555 5551 5548 5545 5542 5541 5539 5538 5537 5537 5536 5535 5535 5536 5536 5537 5538 5538 5537 5537 5537 5538 5540 5541 5542 5543 5544 5547 5550 5551 5555